Flag for Slovakia Weather past 2 weeks in Košice, Slovakia

Now
46 °F

Rain. More clouds than sun.


Feels Like: 40 °F
Forecast: 48 / 65 °F
Wind: 14 mph from Northeast

Location: Kosice - Barca

Current Time: May 27, 2015 at 9:02:37 AM

Latest Report: May 27, 2015 at 8:30 AM


Visibility: N/A

Pressure: 29.83 "Hg

Humidity: 93%

Dew point: 45 °F

Location of KošiceLocation

Historic Weather in Košice — Graph

°F

Košice temperature yesterday

Maximum temperature yesterday: 63 °F (at 3:00 PM)
Minimum temperature yesterday: 57 °F (at 12:00 AM)
Average temperature yesterday: 59 °F

Past Weeks' High & Low Weather Summary

 TemperatureHumidityPressure
High79 °F (May 19, 3:30 PM)100% (May 14, 9:30 AM)30.33 "Hg (May 14, 9:30 AM)
Low39 °F (May 15, 4:00 AM)27% (May 12, 4:30 PM)29.71 "Hg (May 14, 3:30 PM)
Average59 °F70%29.95 "Hg
* Reported May 12 8:00 AM — May 27 8:00 AM, Košice, Weather by CustomWeather, © 2015

Note: Actual official high and low records may vary slightly from our data, if they occured in-between our weather recording intervals... More about our weather records

Advertising

Košice weather history for previous 24 hours

 ConditionsComfort  
Time TempWeatherWind HumidityBarometerVisibility
8:00 AM
Wed, May 27
46 °FRain. Mostly cloudy.16 mph93%29.83 "HgN/A
7:30 AM48 °FLight rain. More clouds than sun.16 mph82%29.80 "HgN/A
7:00 AM48 °FLight rain. More clouds than sun.15 mph87%29.80 "HgN/A
6:30 AM48 °FLight rain. More clouds than sun.16 mph87%29.77 "HgN/A
6:00 AM48 °FLight rain. More clouds than sun.22 mph87%29.77 "Hg4 mi
5:30 AM50 °FLight rain. Clear.25 mph82%29.74 "HgN/A
5:00 AM52 °FLight rain. Clear.23 mph82%29.74 "HgN/A
4:30 AM54 °FLight rain. Clear.23 mph77%29.71 "HgN/A
4:00 AM54 °FLight rain. Clear.21 mph77%29.71 "HgN/A
3:30 AM55 °FLight rain. Overcast.18 mph72%29.71 "HgN/A
3:00 AM57 °FLight rain. Clear.18 mph72%29.71 "HgN/A
2:30 AM57 °FClear.16 mph67%29.71 "Hg10 mi
2:00 AM57 °FPartly cloudy.20 mph67%29.71 "HgN/A
1:30 AM59 °FPassing clouds.18 mph68%29.71 "HgN/A
1:00 AM59 °FPassing clouds.20 mph68%29.71 "HgN/A
12:30 AM59 °FOvercast.18 mph72%29.71 "HgN/A
12:00 AM59 °FLight rain. Mostly cloudy.15 mph77%29.71 "HgN/A
11:30 PM
Tue, May 26
59 °FOvercast.10 mph77%29.71 "HgN/A
11:00 PM59 °FOvercast.10 mph82%29.71 "HgN/A
10:30 PM59 °FOvercast.6 mph82%29.71 "HgN/A
10:00 PM59 °FOvercast.2 mph94%29.71 "HgN/A
9:30 PM59 °FPassing clouds.1 mph94%29.71 "HgN/A
9:00 PM59 °FLight rain. Mostly cloudy.1 mph94%29.71 "HgN/A
8:30 PM59 °FLight rain. More clouds than sun.3 mph94%29.71 "HgN/A
8:00 PM59 °FLight rain. Mostly cloudy.7 mph94%29.71 "HgN/A
7:30 PM61 °FLight rain. Partly sunny.8 mph94%29.74 "Hg4 mi
7:00 PM61 °FMore clouds than sun.7 mph88%29.71 "HgN/A
6:30 PM61 °FMore clouds than sun.5 mph88%29.71 "HgN/A
6:00 PM61 °FMore clouds than sun.6 mph88%29.71 "HgN/A
5:30 PM61 °FBroken clouds.7 mph88%29.71 "HgN/A
5:00 PM63 °FBroken clouds.8 mph83%29.74 "HgN/A
4:30 PM63 °FBroken clouds.8 mph83%29.74 "HgN/A
4:00 PM63 °FBroken clouds.6 mph88%29.74 "HgN/A
3:30 PM63 °FBroken clouds.7 mph88%29.74 "HgN/A
3:00 PM63 °FLight rain. Broken clouds.2 mph88%29.74 "HgN/A
2:30 PM61 °FBroken clouds.2 mph94%29.74 "HgN/A
2:00 PM59 °FLight rain. Broken clouds.5 mph94%29.74 "Hg5 mi
1:30 PM59 °FLight rain. Fog.5 mph94%29.74 "Hg2 mi
1:00 PM59 °FRain. Fog.3 mph94%29.74 "Hg1 mi
12:30 PM57 °FLight rain. Mostly cloudy.6 mph100%29.74 "Hg4 mi
12:00 PM57 °FRain. Fog.3 mph100%29.74 "Hg2 mi
11:30 AM57 °FLight rain. Fog.5 mph100%29.74 "Hg1 mi
11:00 AM57 °FLight rain. Mostly cloudy.6 mph94%29.74 "Hg4 mi
10:30 AM59 °FLight rain. Fog.8 mph94%29.74 "Hg2 mi
10:00 AM59 °FLight rain. Fog.5 mph94%29.74 "Hg2 mi
9:30 AM59 °FSnow. More clouds than sun.2 mph94%29.74 "HgN/A
9:00 AM61 °FLight rain. More clouds than sun.3 mph88%29.74 "Hg4 mi
Weather by CustomWeather, © 2015

See weather overviewHow to use our weather pages